NR0A-4 Weather Reports


Display with metric or nautical units.
time (UTC)temp
F
wind
direction
speed
MPH
gust
MPH
rain 1hr
in
rain 24hr
in
rain mn
in
humidity
%
barometer
mb
20171124201755 65 299 6.0 9.0 0.00 0.00 0.00 34 1003.4
20171124201256 65 299 2.0 5.0 0.00 0.00 0.00 35 1003.4
20171124200755 65 334 5.0 8.0 0.00 0.00 0.00 34 1003.1
20171124200255 65 318 5.0 5.0 0.00 0.00 0.00 34 1003.0
20171124195755 65 310 3.0 7.0 0.00 0.00 0.00 34 1002.9
20171124195254 65 323 6.0 9.0 0.00 0.00 0.00 34 1002.7
20171124194754 65 310 6.0 10.0 0.00 0.00 0.00 34 1002.6
20171124194253 65 312 7.0 12.0 0.00 0.00 0.00 34 1002.6
20171124193753 65 315 6.0 9.0 0.00 0.00 0.00 34 1002.5
20171124193253 65 315 5.0 6.0 0.00 0.00 0.00 36 1002.6
20171124192758 65 319 6.0 9.0 0.00 0.00 0.00 35 1002.7
20171124192258 64 333 5.0 9.0 0.00 0.00 0.00 36 1002.6
20171124191508 64 315 7.0 9.0 0.00 0.00 0.00 36 1002.7
20171124191008 64 310 6.0 8.0 0.00 0.00 0.00 37 1002.5
20171124190508 65 309 5.0 8.0 0.00 0.00 0.00 37 1002.3
20171124190008 64 304 5.0 21.0 0.00 0.00 0.00 38 1002.5
20171124185508 64 310 5.0 7.0 0.00 0.00 0.00 39 1002.3
20171124185008 63 310 6.0 8.0 0.00 0.00 0.00 40 1002.2
20171124184438 63 299 3.0 8.0 0.00 0.00 0.00 41 1002.2
20171124183938 63 324 6.0 9.0 0.00 0.00 0.00 41 1002.1
20171124183438 63 326 8.0 13.0 0.00 0.00 0.00 41 1002.1
20171124182938 63 324 6.0 12.0 0.00 0.00 0.00 42 1002.1
20171124182438 63 314 8.0 17.0 0.00 0.00 0.00 41 1002.0
20171124181938 63 314 8.0 23.0 0.00 0.00 0.00 41 1001.9
20171124181438 63 317 6.0 13.0 0.00 0.00 0.00 41 1001.8
20171124180938 62 323 7.0 16.0 0.00 0.00 0.00 42 1001.6
20171124180438 62 285 6.0 9.0 0.00 0.00 0.00 42 1001.5
20171124175938 62 316 7.0 24.0 0.00 0.00 0.00 41 1001.5
20171124175438 62 310 5.0 9.0 0.00 0.00 0.00 41 1001.5
20171124174938 62 334 6.0 13.0 0.00 0.00 0.00 40 1001.3
20171124174438 62 319 7.0 17.0 0.00 0.00 0.00 40 1001.3
20171124173936 63 312 8.0 22.0 0.00 0.00 0.00 39 1001.1
20171124173437 63 314 6.0 8.0 0.00 0.00 0.00 39 1001.0
20171124172711 64 313 7.0 10.0 0.00 0.00 0.00 36 1000.5
20171124172211 64 314 6.0 8.0 0.00 0.00 0.00 38 1000.2
20171124171656 64 315 6.0 8.0 0.00 0.00 0.00 38 1000.1
20171124171156 64 304 5.0 8.0 0.00 0.00 0.00 38 999.9
20171124170656 64 311 7.0 10.0 0.00 0.00 0.00 38 999.8
20171124170156 65 314 6.0 7.0 0.00 0.00 0.00 38 999.6
20171124165656 65 311 6.0 10.0 0.00 0.00 0.00 39 999.5
20171124165156 64 298 2.0 5.0 0.00 0.00 0.00 40 999.6
20171124164656 64 329 3.0 7.0 0.00 0.00 0.00 41 999.4
20171124164156 63 312 3.0 7.0 0.00 0.00 0.00 42 999.3
20171124163656 63 300 2.0 6.0 0.00 0.00 0.00 44 999.4
20171124163156 62 284 2.0 7.0 0.00 0.00 0.00 44 999.3
20171124162656 62 259 5.0 8.0 0.00 0.00 0.00 45 998.4
20171124162156 61 261 7.0 14.0 0.00 0.00 0.00 45 998.3
20171124161656 61 262 5.0 8.0 0.00 0.00 0.00 46 998.3
20171124161200 61 252 3.0 9.0 0.00 0.00 0.00 48 998.2
20171124160700 60 258 5.0 14.0 0.00 0.00 0.00 48 998.2
20171124160200 58 266 5.0 12.0 0.00 0.00 0.00 51 998.2
20171124155700 56 252 5.0 12.0 0.00 0.00 0.00 56 998.2
20171124155200 56 244 5.0 8.0 0.00 0.00 0.00 58 998.2
20171124154700 55 259 3.0 7.0 0.00 0.00 0.00 59 998.2
20171124154200 54 243 7.0 10.0 0.00 0.00 0.00 61 998.1
20171124153659 52 253 5.0 8.0 0.00 0.00 0.00 63 998.1
20171124153159 51 253 3.0 7.0 0.00 0.00 0.00 65 998.1
20171124152659 50 235 3.0 7.0 0.00 0.00 0.00 66 998.1
20171124152159 49 243 5.0 9.0 0.00 0.00 0.00 68 998.2
20171124151659 48 247 5.0 9.0 0.00 0.00 0.00 69 998.2
20171124151200 48 237 5.0 7.0 0.00 0.00 0.00 70 998.3
20171124150700 48 246 5.0 9.0 0.00 0.00 0.00 70 998.3
20171124150200 47 249 2.0 5.0 0.00 0.00 0.00 70 998.2
20171124145700 47 249 3.0 5.0 0.00 0.00 0.00 71 998.4
20171124145200 46 244 3.0 6.0 0.00 0.00 0.00 72 998.2
20171124144700 46 247 3.0 6.0 0.00 0.00 0.00 73 998.3
20171124144200 45 245 3.0 6.0 0.00 0.00 0.00 73 998.3
20171124143701 45 245 3.0 6.0 0.00 0.00 0.00 74 998.3
20171124143200 45 243 3.0 5.0 0.00 0.00 0.00 74 998.4
20171124142700 45 239 3.0 5.0 0.00 0.00 0.00 74 998.3
20171124142200 44 240 3.0 5.0 0.00 0.00 0.00 75 998.3
20171124141659 45 239 2.0 2.0 0.00 0.00 0.00 75 998.3
20171124141159 45 239 2.0 3.0 0.00 0.00 0.00 75 998.2
20171124140658 45 243 2.0 3.0 0.00 0.00 0.00 75 998.3
20171124140158 44 248 2.0 3.0 0.00 0.00 0.00 76 998.4
20171124135658 44 241 1.0 3.0 0.00 0.00 0.00 76 998.4
20171124135158 44 245 3.0 5.0 0.00 0.00 0.00 76 998.4
20171124134658 44 248 3.0 5.0 0.00 0.00 0.00 77 998.4
20171124134158 43 251 2.0 3.0 0.00 0.00 0.00 78 998.5
20171124133657 43 246 3.0 5.0 0.00 0.00 0.00 79 998.6
20171124133156 42 249 2.0 5.0 0.00 0.00 0.00 80 998.6
20171124132656 41 251 2.0 3.0 0.00 0.00 0.00 82 998.6
20171124132156 41 243 2.0 3.0 0.00 0.00 0.00 82 998.6
20171124131656 41 240 3.0 5.0 0.00 0.00 0.00 82 998.7
20171124131156 42 237 3.0 3.0 0.00 0.00 0.00 80 998.6
20171124130656 42 232 2.0 5.0 0.00 0.00 0.00 79 998.6
20171124130156 43 237 0.0 0.0 0.00 0.00 0.00 78 998.6
20171124125656 43 237 0.0 0.0 0.00 0.00 0.00 78 998.7
20171124125156 43 237 0.0 0.0 0.00 0.00 0.00 79 998.7
20171124124656 42 256 0.0 2.0 0.00 0.00 0.00 80 998.7
20171124124156 42 239 0.0 0.0 0.00 0.00 0.00 81 998.6
20171124123656 42 239 0.0 0.0 0.00 0.00 0.00 81 998.7
20171124123156 42 242 2.0 2.0 0.00 0.00 0.00 80 998.7
20171124122656 42 227 3.0 3.0 0.00 0.00 0.00 80 998.7
20171124122156 43 226 3.0 3.0 0.00 0.00 0.00 79 998.9
20171124121656 43 239 2.0 2.0 0.00 0.00 0.00 79 998.7
20171124121156 43 241 1.0 2.0 0.00 0.00 0.00 79 998.9
20171124120656 43 237 2.0 2.0 0.00 0.00 0.00 79 999.0
20171124120156 43 232 2.0 3.0 0.00 0.00 0.00 79 999.0
20171124115656 43 230 2.0 2.0 0.00 0.00 0.00 79 999.0
20171124115156 43 230 3.0 5.0 0.00 0.00 0.00 79 999.0
20171124114656 43 223 0.0 0.0 0.00 0.00 0.00 78 999.1
20171124114156 43 223 0.0 0.0 0.00 0.00 0.00 77 999.1
20171124113656 44 224 0.0 0.0 0.00 0.00 0.00 77 999.1
20171124113156 44 224 0.0 0.0 0.00 0.00 0.00 76 999.2
20171124112656 44 224 0.0 0.0 0.00 0.00 0.00 76 999.3
20171124112156 44 224 0.0 0.0 0.00 0.00 0.00 76 999.3
20171124111656 44 224 0.0 0.0 0.00 0.00 0.00 76 999.4
20171124111156 44 224 0.0 0.0 0.00 0.00 0.00 76 999.3
20171124110657 44 224 0.0 0.0 0.00 0.00 0.00 76 999.4
20171124110156 44 231 3.0 3.0 0.00 0.00 0.00 76 999.4
20171124105656 44 232 2.0 3.0 0.00 0.00 0.00 76 999.5
20171124105156 44 235 2.0 3.0 0.00 0.00 0.00 76 999.4
20171124104656 44 234 2.0 5.0 0.00 0.00 0.00 76 999.5
20171124104156 44 233 2.0 2.0 0.00 0.00 0.00 76 999.6
20171124103656 44 237 2.0 3.0 0.00 0.00 0.00 76 999.6
20171124103156 45 239 2.0 2.0 0.00 0.00 0.00 75 999.6
20171124102656 45 242 2.0 2.0 0.00 0.00 0.00 74 999.5
20171124102200 45 235 2.0 2.0 0.00 0.00 0.00 74 999.6
20171124101700 45 236 2.0 3.0 0.00 0.00 0.00 74 999.7
20171124101200 45 236 2.0 5.0 0.00 0.00 0.00 74 999.8
20171124100700 45 237 2.0 3.0 0.00 0.00 0.00 74 999.9
20171124100200 45 241 3.0 3.0 0.00 0.00 0.00 75 1000.0
20171124095700 45 232 3.0 3.0 0.00 0.00 0.00 74 1000.1
20171124095200 45 231 2.0 3.0 0.00 0.00 0.00 74 1000.2
20171124094700 45 228 3.0 5.0 0.00 0.00 0.00 73 1000.2
20171124094200 45 231 3.0 5.0 0.00 0.00 0.00 73 1000.3
20171124093659 46 226 3.0 5.0 0.00 0.00 0.00 73 1000.3
20171124093159 46 228 3.0 3.0 0.00 0.00 0.00 72 1000.3
20171124092659 46 234 3.0 5.0 0.00 0.00 0.00 72 1000.5
20171124092158 46 238 3.0 6.0 0.00 0.00 0.00 72 1000.5
20171124091657 46 229 3.0 5.0 0.00 0.00 0.00 72 1000.7
20171124091157 46 231 3.0 5.0 0.00 0.00 0.00 72 1000.9
20171124090657 46 229 3.0 5.0 0.00 0.00 0.00 72 1000.9
20171124090157 46 230 2.0 5.0 0.00 0.00 0.00 71 1001.1
20171124085657 47 239 3.0 5.0 0.00 0.00 0.00 70 1001.1
20171124085157 47 225 3.0 3.0 0.00 0.00 0.00 70 1001.0
20171124084657 47 218 3.0 5.0 0.00 0.00 0.00 70 1001.1
20171124084157 47 220 3.0 5.0 0.00 0.00 0.00 69 1001.2
20171124083657 47 225 5.0 6.0 0.00 0.00 0.00 69 1001.2
20171124083156 48 228 3.0 5.0 0.00 0.00 0.00 68 1001.4
20171124082656 48 230 3.0 8.0 0.00 0.00 0.00 68 1001.5
20171124082156 48 226 5.0 8.0 0.00 0.00 0.00 68 1001.5
20171124081657 48 207 3.0 5.0 0.00 0.00 0.00 68 1001.5
20171124081156 48 210 1.0 2.0 0.00 0.00 0.00 68 1001.6
20171124080656 48 211 1.0 2.0 0.00 0.00 0.00 67 1001.7
20171124080156 49 226 2.0 2.0 0.00 0.00 0.00 67 1001.7
20171124075656 49 228 2.0 3.0 0.00 0.00 0.00 66 1001.8
20171124075200 49 208 2.0 3.0 0.00 0.00 0.00 66 1001.8
20171124074700 49 209 2.0 3.0 0.00 0.00 0.00 65 1001.8
20171124074200 50 167 0.0 0.0 0.00 0.00 0.00 64 1001.9
20171124073700 51 201 3.0 5.0 0.00 0.00 0.00 63 1002.0
20171124073200 51 204 2.0 3.0 0.00 0.00 0.00 63 1002.1
20171124072659 51 157 2.0 2.0 0.00 0.00 0.00 64 1002.1
20171124072159 50 172 2.0 3.0 0.00 0.00 0.00 64 1002.1
20171124071658 50 192 0.0 1.0 0.00 0.00 0.00 64 1002.3
20171124071158 50 226 2.0 2.0 0.00 0.00 0.00 64 1002.5
20171124070658 50 211 2.0 3.0 0.00 0.00 0.00 64 1002.5
20171124070158 50 228 2.0 3.0 0.00 0.00 0.00 63 1002.7
20171124065658 50 221 2.0 2.0 0.00 0.00 0.00 63 1002.9
20171124065158 50 222 3.0 5.0 0.00 0.00 0.00 64 1003.0
20171124064658 50 223 1.0 2.0 0.00 0.00 0.00 63 1003.2
20171124064157 50 227 1.0 3.0 0.00 0.00 0.00 63 1003.3
20171124063657 51 234 2.0 2.0 0.00 0.00 0.00 62 1003.4
20171124063157 51 218 3.0 3.0 0.00 0.00 0.00 62 1003.5
20171124062657 51 241 3.0 5.0 0.00 0.00 0.00 62 1003.7
20171124062157 51 228 3.0 7.0 0.00 0.00 0.00 62 1003.8
20171124061657 51 233 5.0 9.0 0.00 0.00 0.00 61 1003.9
20171124061157 51 229 3.0 5.0 0.00 0.00 0.00 61 1003.9
20171124060657 52 224 5.0 8.0 0.00 0.00 0.00 60 1004.0
20171124060157 52 231 5.0 7.0 0.00 0.00 0.00 60 1004.4
20171124055657 52 241 6.0 8.0 0.00 0.00 0.00 60 1004.5
20171124055157 52 240 3.0 5.0 0.00 0.00 0.00 59 1004.6
20171124054657 53 240 5.0 6.0 0.00 0.00 0.00 58 1004.6
20171124054157 53 241 7.0 9.0 0.00 0.00 0.00 58 1004.7
20171124053657 53 238 6.0 10.0 0.00 0.00 0.00 58 1004.7
20171124053157 53 239 5.0 6.0 0.00 0.00 0.00 58 1004.8
20171124052657 53 232 6.0 7.0 0.00 0.00 0.00 58 1004.8
20171124052157 53 227 6.0 8.0 0.00 0.00 0.00 58 1004.8
20171124051657 53 226 5.0 7.0 0.00 0.00 0.00 58 1004.9
20171124051157 53 232 5.0 7.0 0.00 0.00 0.00 58 1005.0
20171124050657 53 238 6.0 10.0 0.00 0.00 0.00 58 1005.0
20171124050157 53 234 3.0 5.0 0.00 0.00 0.00 57 1005.1
20171124045657 54 236 5.0 6.0 0.00 0.00 0.00 57 1005.3
20171124045157 54 235 6.0 9.0 0.00 0.00 0.00 56 1005.4
20171124044657 54 240 6.0 10.0 0.00 0.00 0.00 57 1005.5
20171124044156 53 244 5.0 9.0 0.00 0.00 0.00 57 1005.4
20171124043657 53 239 5.0 8.0 0.00 0.00 0.00 58 1005.5
20171124043156 53 240 5.0 8.0 0.00 0.00 0.00 57 1005.6
20171124042656 53 243 5.0 7.0 0.00 0.00 0.00 57 1005.8
20171124042156 54 228 5.0 8.0 0.00 0.00 0.00 57 1005.9
20171124041656 54 225 3.0 7.0 0.00 0.00 0.00 57 1006.1
20171124041156 54 230 3.0 5.0 0.00 0.00 0.00 56 1006.1
20171124040656 54 231 5.0 6.0 0.00 0.00 0.00 56 1006.2
20171124040156 54 227 3.0 6.0 0.00 0.00 0.00 55 1006.3
20171124035656 55 231 3.0 5.0 0.00 0.00 0.00 54 1006.3
20171124035156 55 232 5.0 9.0 0.00 0.00 0.00 53 1006.3
20171124034656 56 229 3.0 7.0 0.00 0.00 0.00 53 1006.4
20171124034156 56 232 3.0 7.0 0.00 0.00 0.00 53 1006.5
20171124033656 56 246 2.0 6.0 0.00 0.00 0.00 53 1006.5
20171124033156 56 218 2.0 3.0 0.00 0.00 0.00 53 1006.4
20171124032656 56 222 2.0 6.0 0.00 0.00 0.00 53 1006.5
20171124032156 56 232 0.0 0.0 0.00 0.00 0.00 53 1006.5
20171124031656 56 232 0.0 0.0 0.00 0.00 0.00 53 1006.6
20171124031156 56 223 2.0 3.0 0.00 0.00 0.00 52 1006.7
20171124030656 56 222 2.0 3.0 0.00 0.00 0.00 52 1006.7
20171124030155 57 222 2.0 2.0 0.00 0.00 0.00 51 1006.7
20171124025655 57 228 2.0 6.0 0.00 0.00 0.00 51 1006.8
20171124025154 57 238 2.0 5.0 0.00 0.00 0.00 50 1006.8
20171124024654 57 221 5.0 7.0 0.00 0.00 0.00 51 1006.9
20171124024154 57 238 3.0 5.0 0.00 0.00 0.00 50 1007.0
20171124023654 57 232 2.0 3.0 0.00 0.00 0.00 50 1007.1
20171124023153 57 230 2.0 5.0 0.00 0.00 0.00 50 1007.2
20171124022653 58 234 2.0 3.0 0.00 0.00 0.00 50 1007.3
20171124022153 58 229 2.0 2.0 0.00 0.00 0.00 49 1007.2
20171124021653 58 221 3.0 6.0 0.00 0.00 0.00 49 1007.3
20171124021153 59 214 1.0 2.0 0.00 0.00 0.00 48 1007.4
20171124020653 59 210 2.0 2.0 0.00 0.00 0.00 48 1007.4
20171124020153 59 226 1.0 6.0 0.00 0.00 0.00 48 1007.3
20171124015653 59 210 2.0 5.0 0.00 0.00 0.00 48 1007.3
20171124015153 59 218 5.0 6.0 0.00 0.00 0.00 49 1007.4
20171124014653 59 215 2.0 3.0 0.00 0.00 0.00 49 1007.5
20171124014153 59 212 3.0 8.0 0.00 0.00 0.00 48 1007.6
20171124013653 59 224 3.0 5.0 0.00 0.00 0.00 48 1007.6
20171124013153 59 215 2.0 3.0 0.00 0.00 0.00 48 1007.7
20171124012653 59 221 2.0 3.0 0.00 0.00 0.00 48 1007.9
20171124012153 59 233 3.0 6.0 0.00 0.00 0.00 48 1008.0
20171124011653 59 215 2.0 5.0 0.00 0.00 0.00 48 1008.0
20171124011158 59 222 2.0 6.0 0.00 0.00 0.00 48 1008.0
20171124010658 59 207 2.0 5.0 0.00 0.00 0.00 48 1008.0
20171124010158 59 210 2.0 2.0 0.00 0.00 0.00 48 1008.1
20171124005658 60 201 3.0 6.0 0.00 0.00 0.00 47 1008.0
20171124005158 60 194 3.0 5.0 0.00 0.00 0.00 47 1008.2
20171124004658 60 195 5.0 8.0 0.00 0.00 0.00 46 1008.2
20171124004158 60 196 5.0 5.0 0.00 0.00 0.00 46 1008.3
20171124003658 60 202 5.0 8.0 0.00 0.00 0.00 46 1008.3
20171124003158 61 201 6.0 8.0 0.00 0.00 0.00 46 1008.5
20171124002658 60 212 2.0 6.0 0.00 0.00 0.00 46 1008.5
20171124002158 61 152 0.0 0.0 0.00 0.00 0.00 46 1008.5
20171124001658 61 152 0.0 0.0 0.00 0.00 0.00 46 1008.8
20171124001157 61 152 0.0 0.0 0.00 0.00 0.00 45 1008.7
20171124000657 61 152 0.0 0.0 0.00 0.00 0.00 45 1008.7
20171124000157 61 199 0.0 0.0 0.00 0.00 0.00 45 1008.7
20171123235657 61 199 0.0 0.0 0.00 0.00 0.00 44 1008.8
20171123235157 62 193 2.0 5.0 0.00 0.00 0.00 44 1008.8
20171123234657 62 208 2.0 3.0 0.00 0.00 0.00 43 1008.7
20171123234157 62 191 3.0 6.0 0.00 0.00 0.00 44 1008.6
20171123233657 62 178 2.0 3.0 0.00 0.00 0.00 43 1008.8
20171123233157 62 168 1.0 1.0 0.00 0.00 0.00 43 1008.8
20171123232657 63 200 0.0 0.0 0.00 0.00 0.00 42 1008.9
20171123232157 63 200 0.0 0.0 0.00 0.00 0.00 42 1009.0
20171123231657 63 209 1.0 5.0 0.00 0.00 0.00 41 1009.0
20171123231157 64 156 1.0 3.0 0.00 0.00 0.00 41 1008.9
20171123230657 64 187 1.0 3.0 0.00 0.00 0.00 41 1008.9
20171123230156 63 253 0.0 0.0 0.00 0.00 0.00 41 1009.0
20171123225656 63 253 0.0 0.0 0.00 0.00 0.00 41 1009.0
20171123225156 64 253 0.0 0.0 0.00 0.00 0.00 41 1009.1
20171123224656 64 253 0.0 0.0 0.00 0.00 0.00 40 1009.2
20171123224156 64 253 0.0 0.0 0.00 0.00 0.00 40 1009.1
20171123223656 65 253 0.0 0.0 0.00 0.00 0.00 39 1009.2
20171123223156 66 253 0.0 0.0 0.00 0.00 0.00 38 1009.1
20171123222656 67 222 3.0 5.0 0.00 0.00 0.00 37 1009.1
20171123222156 67 235 3.0 5.0 0.00 0.00 0.00 36 1009.1
20171123221656 68 238 5.0 9.0 0.00 0.00 0.00 35 1009.3
20171123221156 68 238 3.0 9.0 0.00 0.00 0.00 34 1009.2
20171123220656 69 237 5.0 9.0 0.00 0.00 0.00 34 1009.3
20171123220156 70 230 3.0 8.0 0.00 0.00 0.00 33 1009.2
20171123215656 70 228 3.0 5.0 0.00 0.00 0.00 33 1009.3
20171123215156 70 234 6.0 9.0 0.00 0.00 0.00 32 1009.4
20171123214656 70 222 5.0 8.0 0.00 0.00 0.00 33 1009.4
20171123214156 70 225 6.0 7.0 0.00 0.00 0.00 33 1009.5
20171123213656 69 212 5.0 6.0 0.00 0.00 0.00 34 1009.7
20171123213156 70 241 3.0 9.0 0.00 0.00 0.00 34 1009.8
20171123212655 70 225 7.0 13.0 0.00 0.00 0.00 33 1009.8
20171123212155 70 239 6.0 8.0 0.00 0.00 0.00 33 1009.8
20171123211655 70 228 5.0 10.0 0.00 0.00 0.00 33 1009.8
20171123211155 70 238 6.0 9.0 0.00 0.00 0.00 32 1009.7
20171123210656 70 238 5.0 10.0 0.00 0.00 0.00 33 1009.9
20171123210156 70 235 9.0 17.0 0.00 0.00 0.00 32 1009.9
20171123205656 70 244 6.0 8.0 0.00 0.00 0.00 33 1009.9
20171123205156 70 232 6.0 13.0 0.00 0.00 0.00 32 1009.9
20171123204656 70 237 8.0 13.0 0.00 0.00 0.00 32 1010.0
20171123204156 70 226 7.0 10.0 0.00 0.00 0.00 32 1010.1
20171123203656 70 241 7.0 14.0 0.00 0.00 0.00 33 1010.2
20171123203156 70 231 7.0 12.0 0.00 0.00 0.00 33 1010.3
20171123202656 70 245 3.0 7.0 0.00 0.00 0.00 34 1010.4
20171123202156 69 223 5.0 9.0 0.00 0.00 0.00 34 1010.5